TimeEDT,TemperatureF,Dew PointF,Humidity,Sea Level PressureIn,VisibilityMPH,Wind Direction,Wind SpeedMPH,Gust SpeedMPH,PrecipitationIn,Events,Conditions,WindDirDegrees,DateUTC
1:53 AM,61.0,57.9,90,30.10,10.0,Calm,Calm,-,N/A,,Overcast,0,2013-08-16 05:53:00
2:53 AM,60.1,57.0,90,30.09,9.0,Calm,Calm,-,N/A,,Scattered Clouds,0,2013-08-16 06:53:00
3:53 AM,59.0,55.9,90,30.07,10.0,Calm,Calm,-,N/A,,Overcast,0,2013-08-16 07:53:00
4:53 AM,59.0,55.9,90,30.08,10.0,Calm,Calm,-,N/A,,Overcast,0,2013-08-16 08:53:00
5:53 AM,59.0,57.0,93,30.09,10.0,North,3.5,-,N/A,,Overcast,350,2013-08-16 09:53:00
6:53 AM,60.1,55.9,86,30.12,10.0,Calm,Calm,-,N/A,,Overcast,0,2013-08-16 10:53:00
7:53 AM,60.1,57.0,90,30.12,10.0,North,4.6,-,N/A,,Overcast,360,2013-08-16 11:53:00
8:53 AM,62.1,57.0,84,30.14,10.0,Calm,Calm,-,N/A,,Overcast,0,2013-08-16 12:53:00
9:53 AM,64.9,55.9,73,30.14,10.0,ENE,4.6,-,N/A,,Mostly Cloudy,60,2013-08-16 13:53:00
10:53 AM,64.9,55.9,73,30.14,10.0,NE,4.6,-,N/A,,Clear,50,2013-08-16 14:53:00
11:53 AM,66.9,57.0,70,30.13,10.0,NE,5.8,-,N/A,,Clear,50,2013-08-16 15:53:00
12:53 PM,71.1,55.9,59,30.13,10.0,Variable,4.6,-,N/A,,Clear,0,2013-08-16 16:53:00
1:53 PM,72.0,55.9,57,30.12,10.0,NE,5.8,-,N/A,,Mostly Cloudy,50,2013-08-16 17:53:00
2:53 PM,72.0,55.9,57,30.11,10.0,ENE,3.5,-,N/A,,Scattered Clouds,70,2013-08-16 18:53:00
3:53 PM,73.9,57.9,57,30.09,10.0,NE,9.2,-,N/A,,Scattered Clouds,50,2013-08-16 19:53:00
4:53 PM,73.9,57.0,55,30.09,10.0,NE,5.8,-,N/A,,Overcast,50,2013-08-16 20:53:00
5:53 PM,73.0,57.0,57,30.09,10.0,ENE,5.8,-,N/A,,Clear,70,2013-08-16 21:53:00
6:53 PM,72.0,57.0,59,30.08,10.0,NE,5.8,-,N/A,,Clear,40,2013-08-16 22:53:00
7:53 PM,69.1,57.9,68,30.10,10.0,East,3.5,-,N/A,,Mostly Cloudy,90,2013-08-16 23:53:00
8:53 PM,66.0,57.9,75,30.12,10.0,East,3.5,-,N/A,,Partly Cloudy,80,2013-08-17 00:53:00
9:53 PM,64.0,57.0,78,30.15,10.0,ENE,4.6,-,N/A,,Partly Cloudy,60,2013-08-17 01:53:00
10:53 PM,63.0,57.0,81,30.15,10.0,NNE,3.5,-,N/A,,Partly Cloudy,30,2013-08-17 02:53:00
11:53 PM,61.0,57.9,90,30.16,10.0,North,3.5,-,N/A,,Clear,10,2013-08-17 03:53:00